Omaha, NE

3:07 PM CDT on July 24, 2016 (GMT -0500)
Eppley Airfield

Weather History for KOMA - June, 2013

Change the Weather History Date:

Monday, June 10, 2013

  Actual Average Record
Temperature  
Mean Temperature 69 °F 71 °F  
Max Temperature 79 °F 82 °F 106 °F (1933)
Min Temperature 58 °F 59 °F 46 °F (1966)
Degree Days  
Heating Degree Days 0 1  
Month to date heating degree days 16 12  
Since 1 June heating degree days 16 12  
Since 1 July heating degree days 6150 6162  
Cooling Degree Days 4 6  
Month to date cooling degree days 6 51  
Year to date cooling degree days 102 133  
Since 1 June cooling degree days 6 51  
Growing Degree Days 18 (Base 50)    
Moisture  
Dew Point 60 °F    
Average Humidity 76    
Maximum Humidity 93    
Minimum Humidity 58    
Precipitation  
Precipitation 0.00 in 0.15 in 2.30 in (1924)
Month to date precipitation 1.51 1.54  
Year to date precipitation 15.85 12.82  
Snow  
Snow 0.00 in 0.00 in - ()
Month to date snowfall 0.0 0.0  
Since 1 July snowfall 35.7 26.4  
Snow Depth 0.00 in    
Sea Level Pressure  
Sea Level Pressure 29.85 in    
Wind  
Wind Speed 7 mph (ESE)    
Max Wind Speed 17 mph    
Max Gust Speed 22 mph    
Visibility 6 miles    
Events      
T = Trace of Precipitation, MM = Missing Value Source: NWS Daily Summary

Daily Weather History Graph

Daily Weather History Graph

Search for Another Location

Airport or City:

Trip Planner

Search our weather history database for the weather conditions in past years. The results will help you decide how hot, cold, wet, or windy it might be!

Date:

Astronomy

Jun. 10, 2013 Rise Set
Actual Time 5:50 AM CDT 8:56 PM CDT
Civil Twilight 5:16 AM CDT 9:30 PM CDT
Nautical Twilight 4:33 AM CDT 10:13 PM CDT
Astronomical Twilight 3:42 AM CDT 11:04 PM CDT
Moon 7:40 AM CDT (6/10) 10:22 PM CDT (6/10)
Length of Visible Light 16h 13m
Length of Day
15h 06m
Waxing Crescent, 4% of the Moon is Illuminated
Jun 10
Waxing Crescent
Jun 16
First Quarter
Jun 23
Full
Jun 29
Last Quarter
Jul 8
New

Hourly Weather History & Observations

Time (CDT) Temp. Dew Point Humidity Pressure Visibility Wind Dir Wind Speed Gust Speed Precip Events Conditions
12:52 AM 61.0 °F 57.0 °F 87% 29.83 in 10.0 mi NNW 6.9 mph - N/A   Partly Cloudy
1:52 AM 60.1 °F 55.9 °F 86% 29.83 in 10.0 mi Calm Calm - N/A   Clear
2:12 AM 59.0 °F 55.4 °F 88% 29.84 in 10.0 mi NW 6.9 mph - N/A   Mostly Cloudy
2:52 AM 61.0 °F 57.0 °F 87% 29.84 in 10.0 mi NW 5.8 mph - N/A   Overcast
3:52 AM 61.0 °F 57.0 °F 87% 29.84 in 10.0 mi NNW 10.4 mph - N/A   Overcast
4:18 AM 60.8 °F 57.2 °F 88% 29.84 in 9.0 mi North 8.1 mph - N/A   Overcast
4:52 AM 60.1 °F 57.0 °F 90% 29.84 in 7.0 mi NNW 10.4 mph - N/A   Overcast
5:07 AM 59.0 °F 57.2 °F 94% 29.86 in 6.0 mi NW 6.9 mph - N/A   Overcast
5:40 AM 59.0 °F 57.2 °F 94% 29.86 in 1.5 mi North 4.6 mph - N/A   Overcast
5:52 AM 59.0 °F 57.9 °F 96% 29.85 in 1.2 mi North 6.9 mph - N/A   Overcast
6:52 AM 59.0 °F 57.9 °F 96% 29.86 in 1.0 mi Calm Calm - N/A   Overcast
7:52 AM 59.0 °F 57.9 °F 96% 29.88 in 1.2 mi NW 5.8 mph - N/A   Overcast
8:52 AM 60.1 °F 57.9 °F 93% 29.90 in 1.2 mi North 8.1 mph - N/A   Overcast
9:45 AM 62.6 °F 57.2 °F 82% 29.90 in 3.0 mi Calm Calm - N/A   Overcast
9:52 AM 62.1 °F 59.0 °F 90% 29.89 in 3.0 mi Variable 3.5 mph - N/A   Overcast
10:52 AM 63.0 °F 59.0 °F 87% 29.88 in 4.0 mi SSE 3.5 mph - N/A   Overcast
11:29 AM 64.4 °F 59.0 °F 83% 29.91 in 5.0 mi SSE 3.5 mph - N/A   Haze
11:52 AM 64.9 °F 60.1 °F 84% 29.91 in 5.0 mi SSW 4.6 mph - N/A   Haze
12:52 PM 68.0 °F 61.0 °F 78% 29.89 in 6.0 mi South 5.8 mph - N/A   Haze
1:20 PM 69.8 °F 62.6 °F 78% 29.90 in 6.0 mi Variable 3.5 mph - N/A   Haze
1:52 PM 71.1 °F 62.1 °F 73% 29.88 in 6.0 mi South 6.9 mph - N/A   Haze
2:52 PM 73.0 °F 62.1 °F 68% 29.86 in 6.0 mi SE 6.9 mph - N/A   Haze
3:52 PM 75.9 °F 63.0 °F 64% 29.83 in 6.0 mi ESE 6.9 mph - N/A   Haze
4:52 PM 78.1 °F 62.1 °F 58% 29.81 in 7.0 mi ESE 9.2 mph - N/A   Scattered Clouds
5:52 PM 78.1 °F 62.1 °F 58% 29.79 in 7.0 mi SSE 11.5 mph - N/A   Scattered Clouds
6:52 PM 78.1 °F 62.1 °F 58% 29.76 in 10.0 mi SE 13.8 mph - N/A   Scattered Clouds
7:52 PM 77.0 °F 63.0 °F 62% 29.78 in 10.0 mi SSE 8.1 mph - N/A   Partly Cloudy
8:52 PM 73.0 °F 63.0 °F 71% 29.80 in 10.0 mi SSE 6.9 mph - N/A   Partly Cloudy
9:52 PM 70.0 °F 63.0 °F 78% 29.81 in 10.0 mi East 6.9 mph - N/A   Partly Cloudy
10:52 PM 71.1 °F 63.0 °F 75% 29.82 in 10.0 mi SE 6.9 mph - N/A   Partly Cloudy
11:52 PM 70.0 °F 63.0 °F 78% 29.83 in 10.0 mi SE 5.8 mph - N/A   Clear